Location: Antioch Baptist Church
(32.6696°N, 85.7327°W)
Time: 12:19:15
(UTC+00:00)

ATLAS 3B R/B - Pass Details

Date: 14 July 2020
Orbit: 1021 x 1174 km, 63.8° (Epoch: 05 August)

Event Time Altitude Azimuth Distance (km) Brightness Sun altitude
Exits shadow 09:14:10 - 174° (S) 3,409 5.0 -16.9°
Reaches altitude 10° 09:16:01 10° 167° (SSE) 2,822 4.7 -16.6°
Maximum altitude 09:21:32 28° 110° (ESE) 1,796 4.2 -15.7°
Drops below altitude 10° 09:27:00 10° 54° (NE) 2,809 6.3 -14.8°
Sets 09:29:57 0° 43° (NE) 3,768 7.4 -14.3°
